GW1675 Weather Reports


time (UTC)temp
C
wind
direction
speed
KPH
gust
KPH
rain 1hr
cm
rain 24hr
cm
rain mn
cm
humidity
%
barometer
mb
20260505230047 15 91 12.9 22.5 0.00 0.00 0.00 65 1016.7
20260505224545 16 89 12.9 30.6 0.00 0.00 0.00 64 1016.7
20260505223102 16 88 17.7 30.6 0.00 0.00 0.00 64 1016.6
20260505221545 16 91 16.1 25.7 0.00 0.00 0.00 64 1016.7
20260505220047 16 89 14.5 27.4 0.00 0.00 0.00 63 1016.8
20260505214552 16 87 17.7 27.4 0.00 0.00 0.00 63 1016.8
20260505213045 16 88 12.9 27.4 0.00 0.00 0.00 62 1017.0
20260505211552 16 89 14.5 24.1 0.00 0.00 0.00 62 1017.0
20260505210045 16 88 16.1 29.0 0.00 0.00 0.00 62 1017.0
20260505204543 17 91 14.5 25.7 0.00 0.00 0.00 61 1016.7
20260505203051 17 94 11.3 22.5 0.00 0.00 0.00 61 1016.7
20260505201548 17 96 12.9 27.4 0.00 0.00 0.00 60 1016.5
20260505200045 17 101 12.9 24.1 0.00 0.00 0.00 60 1016.5
20260505194545 18 105 12.9 25.7 0.00 0.00 0.00 60 1016.3
20260505193043 18 105 11.3 22.5 0.00 0.00 0.00 59 1016.1
20260505191547 19 106 9.7 19.3 0.00 0.00 0.00 59 1015.8
20260505190044 20 108 8.0 19.3 0.00 0.00 0.00 59 1015.7
20260505184550 20 108 6.4 20.9 0.00 0.00 0.00 59 1015.7
20260505183048 20 109 6.4 16.1 0.00 0.00 0.00 60 1015.7
20260505181541 21 109 16.1 24.1 0.00 0.00 0.00 60 1015.7
20260505180056 21 108 12.9 20.9 0.00 0.00 0.00 60 1015.6
20260505174549 21 111 14.5 27.4 0.00 0.00 0.00 60 1015.5
20260505173044 21 108 16.1 25.7 0.00 0.00 0.00 60 1015.5
20260505171544 22 104 11.3 24.1 0.00 0.00 0.00 61 1015.6
20260505170044 22 113 17.7 29.0 0.00 0.00 0.00 61 1015.6
20260505164545 22 103 14.5 25.7 0.00 0.00 0.00 62 1015.6
20260505163049 22 100 12.9 27.4 0.00 0.00 0.00 62 1015.6
20260505161544 22 113 9.7 19.3 0.00 0.00 0.00 63 1015.7
20260505153055 22 139 6.4 25.7 0.00 0.00 0.00 64 1016.0
20260505151545 22 151 8.0 20.9 0.00 0.00 0.00 64 1016.0
20260505124550 20 108 11.3 20.9 0.00 0.00 0.00 65 1017.6
20260505123055 21 108 3.2 11.3 0.00 0.00 0.00 65 1017.8
20260505121550 20 108 8.0 17.7 0.00 0.00 0.00 65 1017.8
20260505120048 20 116 6.4 24.1 0.00 0.00 0.00 65 1017.9
20260505114544 20 110 6.4 17.7 0.00 0.00 0.00 66 1018.3
20260505113048 20 110 11.3 20.9 0.00 0.00 0.00 66 1018.4
20260505111546 19 111 11.3 22.5 0.00 0.00 0.00 67 1018.6
20260505101551 18 118 8.0 25.7 0.00 0.00 0.00 68 1018.6
20260505100044 18 117 9.7 20.9 0.00 0.00 0.00 69 1018.6
20260505094557 17 117 17.7 25.7 0.00 0.00 0.00 69 1018.7
20260505093053 17 116 17.7 30.6 0.00 0.00 0.00 69 1018.8
20260505091542 17 120 17.7 25.7 0.00 0.00 0.00 70 1018.6
20260505090055 17 120 16.1 25.7 0.00 0.00 0.00 70 1018.5
20260505084544 16 120 9.7 25.7 0.00 0.00 0.00 70 1018.6
20260505083101 16 120 11.3 22.5 0.00 0.00 0.00 71 1018.7
20260505081544 16 120 11.3 24.1 0.00 0.00 0.00 71 1018.6
20260505080045 15 120 6.4 24.1 0.00 0.00 0.00 71 1018.6
20260505074542 15 120 14.5 22.5 0.00 0.00 0.00 71 1018.7
20260505073044 15 120 17.7 27.4 0.00 0.00 0.00 71 1018.7
20260505071545 14 119 9.7 19.3 0.00 0.00 0.00 71 1018.6
20260505070059 13 118 14.5 22.5 0.00 0.00 0.00 71 1018.5
20260505064550 13 119 14.5 24.1 0.00 0.00 0.00 70 1018.4
20260505063044 13 118 14.5 29.0 0.00 0.00 0.00 70 1018.3
20260505061610 13 117 14.5 25.7 0.00 0.00 0.00 70 1018.3
20260505060057 12 117 12.9 22.5 0.00 0.00 0.00 70 1018.3
20260505054555 12 117 11.3 25.7 0.00 0.00 0.00 69 1018.2
20260505053045 12 117 12.9 19.3 0.00 0.00 0.00 69 1018.1
20260505051544 12 117 11.3 24.1 0.00 0.00 0.00 69 1018.0
20260505041548 12 115 11.3 29.0 0.00 0.00 0.00 68 1017.9
20260505040059 13 112 14.5 25.7 0.00 0.00 0.00 68 1018.0
20260505034543 13 110 14.5 27.4 0.00 0.00 0.00 67 1017.9
20260505033049 13 109 14.5 25.7 0.00 0.00 0.00 67 1017.9
20260505031551 13 104 14.5 27.4 0.00 0.00 0.00 67 1017.9
20260505030055 13 101 14.5 25.7 0.00 0.00 0.00 67 1017.7
20260505024550 13 101 14.5 20.9 0.00 0.00 0.00 67 1017.8
20260505023044 13 100 16.1 25.7 0.00 0.00 0.00 66 1017.8
20260505021543 13 99 14.5 20.9 0.00 0.00 0.00 66 1018.0
20260505020047 13 99 9.7 24.1 0.00 0.00 0.00 66 1018.0
20260505014546 13 99 11.3 25.7 0.00 0.00 0.00 66 1018.2
20260505013051 13 97 14.5 25.7 0.00 0.00 0.00 65 1018.1
20260505011546 14 94 16.1 27.4 0.00 0.00 0.00 65 1018.2
20260505010056 14 94 16.1 29.0 0.00 0.00 0.00 65 1018.3
20260505004549 14 89 11.3 30.6 0.00 0.00 0.00 65 1018.5
20260505003044 15 101 12.9 29.0 0.00 0.00 0.00 64 1018.6
20260505001545 15 94 12.9 30.6 0.00 0.00 0.00 64 1018.7
20260505000054 15 90 11.3 24.1 0.00 0.00 0.00 64 1018.8
20260504234543 15 89 12.9 25.7 0.00 0.00 0.00 64 1018.7
20260504233045 15 89 12.9 29.0 0.00 0.00 0.00 63 1018.7
20260504231544 15 89 12.9 30.6 0.00 0.00 0.00 63 1018.7